This is the latest recevied weather packets stored in our database for station/object K4AMF. If no packets are shown the sender has not sent any weather packets the latest 10 day(s).
| Time | Temp. | Humidity | Pressure | Rain* | Wind** | Luminosity | Snow |
|---|---|---|---|---|---|---|---|
| 1778070237 | 21.11° C | 80% | 1018 hPa | 0 mm | - | 78 W/m² | - |
| 1778069935 | 21.11° C | 81% | 1017.6 hPa | 0 mm | - | 75 W/m² | - |
| 1778069632 | 21.11° C | 81% | 1017.7 hPa | 0 mm | - | 77 W/m² | - |
| 1778069329 | 20.56° C | 82% | 1017.4 hPa | 0 mm | - | 74 W/m² | - |
| 1778069027 | 20.56° C | 82% | 1017.6 hPa | 0 mm | - | 66 W/m² | - |
| 1778068724 | 20.56° C | 82% | 1017.5 hPa | 0 mm | - | 62 W/m² | - |
| 1778068422 | 20° C | 82% | 1017.6 hPa | 0 mm | - | 65 W/m² | - |
| 1778068120 | 20° C | 82% | 1017.3 hPa | 0 mm | - | 64 W/m² | - |
| 1778067817 | 20° C | 82% | 1017.6 hPa | 0 mm | - | 65 W/m² | - |
| 1778067516 | 20° C | 83% | 1017.4 hPa | 0 mm | - | 62 W/m² | - |
| 1778067213 | 19.44° C | 83% | 1017.4 hPa | 0 mm | - | 55 W/m² | - |
| 1778066909 | 19.44° C | 83% | 1017.3 hPa | 0 mm | - | 50 W/m² | - |
| 1778066606 | 19.44° C | 84% | 1017.3 hPa | 0 mm | - | 42 W/m² | - |
| 1778066304 | 18.89° C | 84% | 1017.3 hPa | 0 mm | - | 34 W/m² | - |
| 1778066002 | 18.89° C | 85% | 1017.5 hPa | 0 mm | - | 28 W/m² | - |
| 1778065699 | 18.89° C | 85% | 1017.3 hPa | 0 mm | - | 23 W/m² | - |
| 1778065396 | 18.89° C | 85% | 1017.2 hPa | 0 mm | - | 19 W/m² | - |
| 1778065093 | 18.89° C | 85% | 1017.2 hPa | 0 mm | - | 14 W/m² | - |
| 1778064789 | 18.89° C | 85% | 1017.2 hPa | 0 mm | - | 8 W/m² | - |
| 1778064487 | 18.89° C | 85% | 1017 hPa | 0 mm | - | 4 W/m² | - |
| 1778064185 | 18.89° C | 85% | 1016.9 hPa | 0 mm | - | 1 W/m² | - |
| 1778063882 | 18.89° C | 85% | 1017.1 hPa | 0 mm | - | 0 W/m² | - |
| 1778063579 | 18.89° C | 85% | 1016.8 hPa | 0 mm | - | 0 W/m² | - |
| 1778063277 | 18.89° C | 85% | 1016.8 hPa | 0 mm | - | 0 W/m² | - |
| 1778062974 | 18.89° C | 84% | 1017 hPa | 0 mm | - | 0 W/m² | - |
* Rain latest hour (hover to see other rain measurements)
** Current wind speed in m/s (hover to see current wind gust speed)